Location: Lal�n
(42.6500°N, 8.1170°W)
Time: 12:48:50
(UTC+01:00)

ISS - Visible Passes

Search period start: 23 February 2019 00:00
Search period end: 05 March 2019 00:00
Orbit: 403 x 411 km, 51.6° (Epoch: 23 February)

Date Brightness Start Highest point End Pass type
(mag) Time Alt. Az. Time Alt. Az. Time Alt. Az.
24 Feb -2.6 07:14:24 10° SSW 07:17:29 40° SE 07:20:35 10° ENE visible
25 Feb -1.7 06:25:01 18° SSE 06:26:12 22° SE 06:28:49 10° E visible
26 Feb -0.5 05:36:07 11° ESE 05:36:07 11° ESE 05:36:23 10° ESE visible
26 Feb -3.9 07:08:51 19° WSW 07:11:04 82° NW 07:14:21 10° NE visible
27 Feb -3.3 06:19:47 53° SE 06:19:47 53° SE 06:22:51 10° ENE visible
28 Feb -0.5 05:30:35 14° E 05:30:35 14° E 05:31:10 10° ENE visible
28 Feb -3.1 07:03:18 24° W 07:04:44 39° NNW 07:07:51 10° NE visible
01 Mar -2.9 06:13:59 45° NNE 06:13:59 45° NNE 06:16:28 10° NE visible
02 Mar -0.4 05:24:36 13° ENE 05:24:36 13° ENE 05:24:59 10° ENE visible
02 Mar -2.3 06:57:18 20° NW 06:58:30 24° NNW 07:01:16 10° NE visible
03 Mar -2.1 06:07:50 27° NNE 06:07:50 27° NNE 06:09:52 10° NE visible
04 Mar -0.3 05:18:19 11° NE 05:18:19 11° NE 05:18:27 10° NE visible
04 Mar -1.8 06:51:01 15° NW 06:52:19 18° N 06:54:43 10° NE visible
